Location: Melbourne
(37.8170°S, 144.9670°E)
Time: 13:37:44
(UTC+10:00)

CZ-3 R/B - Visible Passes

Search period start: 01 September 2016 00:00
Search period end: 11 September 2016 00:00
Orbit: 217 x 10843 km, 28.5° (Epoch: 31 August)

Date Brightness Start Highest point End Pass type
(mag) Time Alt. Az. Time Alt. Az. Time Alt. Az.
01 Sep 6.1 17:29:09 10° WNW 17:44:28 33° NNW 18:35:20 10° NNE visible
02 Sep 6.6 18:44:11 10° WNW 19:04:11 25° NNW 19:55:47 10° NNE visible
03 Sep 7.0 20:05:03 10° WNW 20:27:05 16° NNW 21:07:17 10° N visible
04 Sep 6.2 17:18:38 10° WNW 17:32:42 29° NNW 18:15:55 10° NNE visible
05 Sep 6.7 18:33:42 10° WNW 18:51:42 21° NNW 19:34:47 10° NNE visible
06 Sep 7.0 19:56:39 10° NW 20:14:22 13° NNW 20:43:10 10° N visible
08 Sep 6.7 18:21:59 10° NW 18:37:37 18° NNW 19:11:14 10° N visible
09 Sep 7.1 19:50:12 10° NNW 20:00:09 11° NNW 20:13:04 10° NNW visible
